CZ-3B DEB, 42473

Orbit data source: Space-Track

CZ-3B DEB, 42473 is space debris in HEO originally from a launch on Mon, 19 Dec 2011 UTC launched from the Xichang Space Center, China (XSC). Debris objects in space refer to the collection of defunct objects orbiting the Earth. Examples of debris include non-operational satellites, rocket bodies, and fragments generated from explosions, collisions, or faulty payload assembly.

Loading next visibility...
Identifier
42473, 2011-077AN
Orbit
HEO
Country
Flag of CNCN / PRC
Related business
Manufacturer
CALT
Mission
Spacecraft
Bus & Motor
Unknown
Mass
Unknown
Launch date (UTC)
2011-12-19 (14 years ago)
Launch vehicle
Unknown
Launch site
Xichang Space Center, China (XSC)
Object type
Payload
Rocket body
Debris
Shape & HBR
Unknown shape, 2.1 m
Radar Cross Section
Medium (>0.1 m² and <1 m²)

Expand to show TLE details & history
Last TLE update: 4 days ago

TLE from 4 days ago
0 CZ-3B DEB
1 42473U 11077AN  25305.23071597  .00000031  00000-0  00000-0 0  9999
2 42473  23.1140 104.8599 7161358  31.6414 356.2695  1.69234219 59231
Epoch: 2025-11-01T05:32Z
TLE epoch observation values (Epoch: 2025-11-01T05:32:13.859Z)
Latitude
0.00027°
Longitude
-19.04909°
Altitude
2,660.05 km
Speed
8.649 km/s
True Right ascension
06h 59m 05s
True Declination
0° 00' 01"
Sunlit
Object was in daylight at epoch
Visualization orbit readout
Latitude
Unknown
Longitude
Unknown
Altitude
Unknown
Speed
Unknown
Apparent Right ascension
Unknown
Apparent Declination
Unknown
Sunlit
N/A
Visualization observer readout
Local Sidereal Time
10:10:08
Azimuth
Unknown
Elevation
Unknown
Doppler factor
Unknown
Orbital elements
Apogee altitude
44,673.6 km
Perigee altitude
2,066.277 km
Semi-major axis
29,748.075 km
Eccentricity
0.71614
Inclination
23.114°
RAAN
104.8599°
Arg. of periapsis
31.6414°
True anomaly
329.0018°
Mean anomaly
356.2695°
Eccentric anomaly
347.13047°
Mean motion
0.42301 °/min
Orbital period
851.04 mins
BSTAR
0
Loading maneuver chart data...
Computing Atmospheric mass density...
Loading historical data...
Loading historical data...
Loading historical data...
Loading historical data...
Loading historical data...
Loading historical data...
Loading historical data...

Documentation

Showing up to 5 results
|